[[{"header":{"parameterUnit":"m.s-1","parameterCategory":1,"la1":30.2991,"la2":30.254,"lo1":-89.0895,"lo2":-89.0444,"dy":0.0017,"dx":0.0017,"nx":28,"ny":28,"refTime":"2024-06-06T09:00:00:Z","depth":0,"parameterNumber":2,"parameterNumberName":"U-component_of_WINDS"},"data":[0,0,0,0,0,0,0,0,0,0,0,0,0,0,0,0,0,0,0,0,0,0,0,0,0,0,0,0,0,0,0,0,0,0,0,0,0,0,0,0,0,0,0,0,0,0,0,0,0,0,0,0,0,0,0,0,0,0,0.7365,0.7365,0,0.7372,0.7372,0.7372,0.735,0.735,0.7349,0.7348,0.7356,0.7357,0.7358,0,0,0,0,0,0,0,0,0,0,0,0,0,0.7333,0.7333,0.7365,0.7365,0.7365,0.7372,0.7372,0.7372,0.735,0.735,0.7349,0.7348,0.7356,0.7357,0.7358,0,0,0,0,0,0,0,0,0,0,0,0,0,0.7344,0.7334,0.7365,0.7355,0.7354,0.7372,0.7372,0.7373,0.7351,0.735,0.7349,0.7348,0.7355,0.7357,0.7358,0.7386,0,0,0.7362,0.7362,0,0,0,0,0,0,0,0,0.7343,0.7345,0.7356,0.7356,0.7355,0.7359,0.7364,0.7377,0.7351,0.7352,0.7348,0.7347,0.7358,0.7359,0.7362,0.7386,0.7387,0.7362,0.7363,0.7363,0.7363,0,0,0,0,0,0,0,0.7343,0.7345,0.7368,0.7357,0.7356,0.735,0.7351,0.7366,0.7361,0.7352,0.735,0.7351,0.7357,0.7361,0.7363,0.7387,0.7362,0.7363,0.7364,0.7364,0.7434,0.7435,0,0,0,0,0,0,0.7343,0.7344,0.7368,0.7368,0.7347,0.7352,0.7352,0.7359,0.736,0.736,0.7352,0.735,0.736,0.7361,0.7363,0.7396,0.7363,0.7364,0.7365,0.7433,0.7435,0.7436,0,0,0,0,0,0,0.7342,0.7345,0.7367,0.7356,0.7358,0.7353,0.7361,0.736,0.7364,0.7361,0.736,0.7357,0.7359,0.7361,0.738,0.7396,0.7365,0.7366,0.7432,0.7434,0.7435,0.7462,0,0,0,0,0,0,0.7342,0.7345,0.7356,0.7356,0.7359,0.7385,0.7362,0.7361,0.7366,0.7363,0.7365,0.7364,0.7358,0.7379,0.7382,0.7397,0.7367,0.7431,0.7433,0.7435,0.746,0.7465,0.7469,0,0,0,0,0,0.7341,0.7363,0.7356,0.7359,0.7372,0.7386,0.7387,0.738,0.7367,0.7378,0.7376,0.7364,0.7394,0.7381,0.7384,0.74,0.743,0.7432,0.7435,0.7458,0.7464,0.7469,0,0,0,0,0,0,0.7364,0.7363,0.7355,0.7379,0.7383,0.7382,0.7395,0.7386,0.7393,0.7391,0.7381,0.7382,0.7403,0.7403,0.7389,0.7427,0.7409,0.7413,0.7426,0.7432,0.7436,0.7435,0.7368,0,0,0,0,0,0.7372,0.7384,0.7382,0.7402,0.7405,0.74,0.7405,0.7399,0.7403,0.7404,0.7404,0.7408,0.7418,0.7425,0.7434,0.746,0.746,0.7473,0.7477,0.7481,0.7484,0.7498,0.7503,0.7444,0.7444,0.7444,0,0,0.7389,0.7389,0.7397,0.7407,0.7409,0.7422,0.7401,0.7415,0.7424,0.7406,0.7425,0.7425,0.7429,0.7452,0.7462,0.7453,0.75,0.7484,0.7487,0.7488,0.7501,0.7507,0.7511,0.7446,0.7445,0.7445,0,0,0.7425,0.7427,0.7444,0.7447,0.7451,0.7447,0.7452,0.7453,0.7452,0.747,0.7458,0.7468,0.7486,0.7489,0.7493,0.7532,0.7522,0.7535,0.7558,0.7572,0.7576,0.758,0.7594,0.7599,0.7538,0.7538,0.7538,0,0.7445,0.7463,0.7454,0.7469,0.7474,0.7459,0.7477,0.748,0.7487,0.7491,0.748,0.7503,0.7504,0.7528,0.7537,0.7541,0.7546,0.7535,0.7576,0.758,0.7584,0.7597,0.7602,0.754,0.754,0.7539,0.7539,0,0.7487,0.75,0.7513,0.752,0.7527,0.7543,0.7537,0.7545,0.7539,0.7537,0.7556,0.7557,0.7567,0.7572,0.7566,0.7595,0.7589,0.7578,0.756,0.7591,0.7604,0.7609,0.7542,0.7541,0.7541,0.7541,0,0,0.7538,0.754,0.7546,0.7549,0.7552,0.7562,0.7578,0.7587,0.7594,0.7599,0.7612,0.7628,0.7617,0.7622,0.7616,0.7629,0.7659,0.7616,0.7616,0.7624,0.7692,0.77,0.7706,0.7653,0.7654,0.7654,0.7692,0,0.7573,0.76,0.7594,0.762,0.7632,0.7619,0.7632,0.7636,0.7635,0.7645,0.7643,0.7654,0.764,0.7643,0.7654,0.7653,0.7673,0.765,0.7665,0.7666,0.7664,0.7713,0.7721,0.7756,0.7696,0.7697,0.7698,0,0.7618,0.7626,0.7654,0.7656,0.766,0.7673,0.7681,0.769,0.7695,0.7693,0.7699,0.769,0.7706,0.7688,0.7711,0.7695,0.7701,0.7702,0.7703,0.7704,0.7683,0.7715,0.7767,0.7772,0.7705,0.7705,0.7704,0,0.7652,0.7669,0.7688,0.7691,0.7694,0.7703,0.7705,0.7708,0.7714,0.7722,0.7726,0.7735,0.774,0.7747,0.7742,0.773,0.7765,0.7747,0.7764,0.7765,0.7772,0.7772,0.7826,0.7776,0.7776,0.7776,0.7776,0,0.7693,0.771,0.7704,0.7715,0.7735,0.7727,0.7747,0.7747,0.775,0.7762,0.7751,0.7762,0.7755,0.7766,0.7762,0.7781,0.7783,0.7782,0.7781,0.7783,0.7783,0.7786,0.7784,0.7778,0.7777,0.7777,0.7777,0,0.7734,0.773,0.775,0.7751,0.7752,0.7766,0.7768,0.7779,0.7777,0.7792,0.7795,0.7792,0.7804,0.78,0.7813,0.781,0.7834,0.783,0.7833,0.7832,0.7849,0.7848,0.7908,0.7915,0.7861,0.7861,0.7862,0,0.7759,0.7773,0.7776,0.7783,0.7785,0.7797,0.7803,0.7797,0.7804,0.781,0.782,0.7832,0.784,0.786,0.786,0.787,0.7865,0.7886,0.7867,0.7869,0.7866,0.7865,0.7866,0.7889,0.789,0.7891,0.7891,0,0.7805,0.7803,0.7813,0.7822,0.783,0.7837,0.7843,0.7849,0.7843,0.7852,0.7864,0.7871,0.7884,0.7896,0.7905,0.7907,0.7898,0.7897,0.7902,0.7904,0.7905,0.7904,0.7843,0.7896,0.7895,0.7895,0.7894,0.7894,0.7839,0.7851,0.7855,0.7866,0.787,0.7876,0.7886,0.7886,0.7896,0.7907,0.7902,0.7917,0.7921,0.7933,0.7936,0.7948,0.794,0.7946,0.7948,0.795,0.7952,0.7903,0.7949,0.7949,0.7949,0.7949,0.7949,0,0.7885,0.7887,0.7897,0.7906,0.7915,0.7906,0.7913,0.7921,0.7933,0.7939,0.7947,0.7962,0.7973,0.7974,0.7984,0.7993,0.7989,0.7996,0.7995,0.7996,0.7958,0.7953,0.7999,0.7999,0.7999,0.7999,0.7999,0.7999,0.7909,0.7928,0.7926,0.7947,0.7949,0.7963,0.7968,0.7973,0.7977,0.7994,0.8003,0.8004,0.8007,0.8018,0.8028,0.8028,0.8032,0.804,0.8039,0.8003,0.7998,0.7994,0.7989,0.8041,0.8042,0.8075,0.8076,0.8076]},{"header":{"parameterUnit":"m.s-1","parameterCategory":1,"la1":30.2991,"la2":30.254,"lo1":-89.0895,"lo2":-89.0444,"dy":0.0017,"dx":0.0017,"nx":28,"ny":28,"refTime":"2024-06-06T09:00:00:Z","depth":0,"parameterNumber":3,"parameterNumberName":"V-component_of_WINDS"},"data":[0,0,0,0,0,0,0,0,0,0,0,0,0,0,0,0,0,0,0,0,0,0,0,0,0,0,0,0,0,0,0,0,0,0,0,0,0,0,0,0,0,0,0,0,0,0,0,0,0,0,0,0,0,0,0,0,0,0,2.4575,2.4576,0,2.4674,2.4675,2.4676,2.47,2.47,2.4699,2.4698,2.4793,2.4796,2.4799,0,0,0,0,0,0,0,0,0,0,0,0,0,2.4402,2.4406,2.4575,2.4576,2.4578,2.4673,2.4675,2.4676,2.47,2.47,2.4699,2.4698,2.4792,2.4796,2.48,0,0,0,0,0,0,0,0,0,0,0,0,0,2.4487,2.4407,2.4575,2.4601,2.4605,2.4673,2.4675,2.4676,2.47,2.4699,2.4699,2.4698,2.4791,2.4796,2.48,2.4848,0,0,2.4814,2.4816,0,0,0,0,0,0,0,0,2.4482,2.4493,2.4596,2.46,2.4604,2.4674,2.4649,2.4734,2.4701,2.4664,2.4698,2.4697,2.4754,2.4762,2.4782,2.4852,2.4856,2.4815,2.4818,2.482,2.4821,0,0,0,0,0,0,0,2.4476,2.4489,2.4614,2.4598,2.4602,2.4606,2.4617,2.4665,2.4713,2.4667,2.4669,2.4681,2.4756,2.4777,2.4784,2.4857,2.4815,2.4819,2.4822,2.4824,2.497,2.4971,0,0,0,0,0,0,2.4466,2.4484,2.4611,2.4617,2.4539,2.461,2.4623,2.4652,2.4712,2.4721,2.4681,2.4681,2.477,2.4779,2.4788,2.4847,2.482,2.4824,2.4827,2.4969,2.4971,2.4972,0,0,0,0,0,0,2.4463,2.4477,2.4607,2.4551,2.4568,2.4614,2.4647,2.4654,2.4676,2.4723,2.4731,2.4695,2.4769,2.4781,2.4833,2.485,2.4826,2.483,2.4968,2.497,2.4971,2.4965,0,0,0,0,0,0,2.4458,2.4476,2.4496,2.4551,2.4571,2.4652,2.4648,2.4657,2.4685,2.4686,2.4738,2.4746,2.477,2.4826,2.4837,2.4856,2.4834,2.4967,2.4969,2.4971,2.4964,2.4967,2.4969,0,0,0,0,0,2.4451,2.4489,2.4497,2.4512,2.4597,2.4653,2.4664,2.4692,2.4686,2.4706,2.4736,2.4744,2.4847,2.4831,2.4844,2.4865,2.4966,2.4968,2.497,2.4963,2.4966,2.4969,0,0,0,0,0,0,2.4432,2.4497,2.4506,2.4563,2.4603,2.4657,2.4682,2.4694,2.4735,2.4734,2.4765,2.4776,2.4826,2.485,2.4832,2.4913,2.4906,2.4911,2.4896,2.4899,2.4901,2.4894,2.4838,0,0,0,0,0,2.4435,2.4477,2.4531,2.4576,2.4595,2.4635,2.4661,2.4679,2.4721,2.4737,2.4771,2.4809,2.4849,2.4875,2.4916,2.4968,2.4979,2.4988,2.4991,2.4992,2.4996,2.5025,2.503,2.498,2.498,2.498,0,0,2.4441,2.4481,2.4506,2.4573,2.4606,2.4647,2.4649,2.4693,2.4723,2.4743,2.4794,2.482,2.4864,2.4917,2.4941,2.4938,2.5013,2.4996,2.4996,2.5,2.5028,2.5033,2.5037,2.4982,2.4981,2.4981,0,0,2.4472,2.4508,2.4549,2.4582,2.4632,2.4659,2.4669,2.4721,2.474,2.4793,2.4808,2.4843,2.4913,2.4944,2.4969,2.5012,2.5021,2.5024,2.5035,2.5063,2.5067,2.507,2.5085,2.509,2.5028,2.5028,2.5028,0,2.4472,2.4537,2.4568,2.4612,2.464,2.4662,2.4703,2.4733,2.4793,2.4811,2.4808,2.4896,2.4927,2.4987,2.4997,2.5017,2.5028,2.5018,2.5064,2.5068,2.5072,2.5086,2.5092,2.5028,2.5028,2.5028,2.5028,0,2.4534,2.4579,2.4606,2.4665,2.4697,2.4739,2.4775,2.4802,2.4818,2.4844,2.4896,2.4935,2.4983,2.4998,2.5013,2.506,2.5056,2.5058,2.5051,2.5076,2.509,2.5096,2.5028,2.5028,2.5028,2.5028,0,0,2.4556,2.4633,2.4642,2.4669,2.4726,2.476,2.4802,2.4851,2.4874,2.4914,2.4949,2.5008,2.501,2.5038,2.5057,2.5081,2.5112,2.508,2.5081,2.5084,2.5164,2.5162,2.5168,2.5118,2.5119,2.512,2.516,0,2.4594,2.4673,2.4702,2.4765,2.4806,2.4827,2.4863,2.4901,2.4927,2.4963,2.499,2.5031,2.5031,2.5049,2.5074,2.5103,2.5128,2.51,2.5149,2.5151,2.5137,2.5175,2.5173,2.5209,2.5166,2.5167,2.5167,0,2.4649,2.4692,2.476,2.4812,2.483,2.4863,2.491,2.4945,2.4987,2.5004,2.5036,2.5053,2.5095,2.5086,2.5145,2.5125,2.5147,2.5164,2.5166,2.5171,2.516,2.5181,2.5221,2.5226,2.5176,2.5176,2.5175,0,2.4658,2.4732,2.4783,2.4805,2.4867,2.4889,2.4915,2.4957,2.4985,2.5025,2.5043,2.5087,2.5111,2.5144,2.5171,2.5162,2.5227,2.522,2.524,2.524,2.5253,2.5252,2.5297,2.5268,2.5267,2.5267,2.5267,0,2.4697,2.4737,2.4787,2.4818,2.4864,2.4896,2.494,2.4967,2.5004,2.5039,2.5059,2.5091,2.5126,2.5162,2.5184,2.5228,2.5239,2.5252,2.5258,2.5251,2.5249,2.5265,2.5263,2.5269,2.5268,2.5268,2.5268,0,2.4714,2.475,2.4806,2.486,2.4874,2.4905,2.4951,2.4981,2.5007,2.5051,2.5063,2.5104,2.5147,2.5178,2.5234,2.5248,2.5296,2.5301,2.5282,2.5285,2.5303,2.5301,2.536,2.5369,2.5334,2.5334,2.5335,0,2.4737,2.4769,2.4827,2.4853,2.488,2.4921,2.495,2.4982,2.5011,2.5062,2.5085,2.513,2.5168,2.5236,2.5269,2.5311,2.5317,2.5335,2.5324,2.5315,2.5317,2.5315,2.5317,2.5337,2.5337,2.5337,2.5337,0,2.4773,2.4789,2.483,2.4878,2.4912,2.495,2.4989,2.5008,2.5048,2.5078,2.5124,2.5154,2.5211,2.5255,2.53,2.5325,2.5337,2.5341,2.5348,2.534,2.5328,2.5334,2.5286,2.5339,2.5339,2.5339,2.5339,2.5339,2.4793,2.4822,2.4868,2.4913,2.4946,2.4982,2.5013,2.5043,2.5083,2.5134,2.515,2.5197,2.5237,2.53,2.5326,2.5361,2.536,2.537,2.5373,2.5375,2.5374,2.5323,2.537,2.537,2.537,2.537,2.537,0,2.483,2.4861,2.4902,2.4956,2.4992,2.5002,2.5045,2.5073,2.5115,2.5153,2.519,2.5242,2.5285,2.5322,2.5366,2.5387,2.5394,2.5398,2.5396,2.5401,2.5373,2.5362,2.5392,2.5392,2.5392,2.5392,2.5392,2.5392,2.4853,2.4903,2.4925,2.499,2.502,2.5068,2.5092,2.5124,2.5155,2.5212,2.5249,2.5273,2.531,2.5357,2.5396,2.5406,2.542,2.5423,2.5434,2.5406,2.5403,2.5401,2.5391,2.5426,2.5426,2.5459,2.5459,2.546]}]]